Regional Weather Roundup
Issued by NWS Goodland, KS

Home | Current Version | Previous Version | Graphics & Text | Print | Product List | Glossary On
Versions: 1 2 3 4 5 6 7 8 9 10 11 12 13 14 15 16 17 18 19 20 21 22 23 24 25 26 27 28 29 30 31 32 33 34 35 36 37 38 39 40 41 42 43 44 45 46 47 48 49 50
000
ASUS43 KGLD 020408
RWRGLD

GOODLAND FORECAST AREA HOURLY WEATHER ROUNDUP
NATIONAL WEATHER SERVICE GOODLAND KS
1000 PM MDT TUE SEP 01 2015

...OFFICIAL OBSERVATIONS...

CITY           SKY/WX    TMP DP  RH WIND       PRES   REMARKS
GOODLAND KS    PTCLDY    73  59  61 S9        29.99S
HILL CITY KS   MOCLDY    80  58  46 SE3       29.92R
IMPERIAL NEB   CLEAR     73  53  49 S7        29.95R
MCCOOK NEB     CLEAR     78  57  48 S6        29.92S
AKRON CO       CLEAR     74  48  39 S12       30.05R
BURLINGTON CO  PTCLDY    69  58  67 S9        30.04S
LIMON CO       MOCLDY    64  48  56 CALM      30.11S
$$

...UNOFFICIAL OBSERVATIONS...

CITY           SKY/WX    TMP DP  RH WIND       PRES   REMARKS
COLBY KS       CLEAR     75  63  64 E5        29.98S
GOVE KS          N/A     79  32  18 MISG        N/A
LENORA KS        N/A     76  32  20 MISG        N/A
NORTON KS      CLEAR     73  54  49 S3        29.91S
TRENTON NEB      N/A     73  32  22 CALM        N/A
KIT CARSON CO    N/A     71  58  63 MISG        N/A
YUMA CO          N/A     71  57  61 S9          N/A
$$


USA.gov is the U.S. government's official web portal to all federal, state and local government web resources and services.